Regional Weather Roundup
Issued by NWS

Home | Current Version | Previous Version | Text Only | Print | Product List | Glossary Off
Versions: 1 2 3 4 5 6 7 8 9 10 11 12 13 14 15 16 17 18 19 20 21 22 23 24 25 26 27 28 29 30 31 32 33 34 35 36 37 38 39 40 41 42 43 44 45 46 47 48 49 50

000
ASUS43 KIND 260809
RWRIN

WEATHER ROUNDUP FOR INDIANA
NATIONAL WEATHER SERVICE INDIANAPOLIS IN
300 AM EST MON JAN 26 2015

NOTE: "FAIR" INDICATES FEW OR NO CLOUDS BELOW 12,000 FEET WITH NO
SIGNIFICANT WEATHER AND/OR OBSTRUCTIONS TO VISIBILITY.

* - STATION DOES NOT REPORT WEATHER SUCH AS PRECIPITATION OR FOG.

+ - STATION NOT QUALITY CONTROLLED BY THE NATIONAL WEATHER SERVICE.
    USE DATA WITH CAUTION...ESPECIALLY DEWPOINT AND RELATIVE
    HUMIDITY OBSERVATIONS.

INZ001>003-010>013-019-020-260900-
NORTHWEST INDIANA

CITY           SKY/WX    TMP DP  RH WIND       PRES   REMARKS
GARY /AIRPORT/ PTCLDY    24  13  64 NE8       30.00R WCI  15
KNOX *+        CLEAR     14   2  59 N7        29.96R WCI   4
LA PORTE +     PTCLDY    18  12  79 NE6       29.97R WCI   9
MICHIGAN CITY+ CLEAR     18   9  68 CALM      29.99R
MONTICELLO +   CLOUDY    24  17  77 N9        29.94R WCI  14
RENSSELAER +   CLEAR     21  19  93 N8        29.96S WCI  12
VALPARAISO     CLEAR     15  10  80 N5        29.97R WCI   8

$$

LMZ046-743>745-260900-
SOUTHERN LAKE MICHIGAN

STATION/POSITION TIME  TEMP WIND        PRES
                       AIR  DIR/SP/G
                 (UTC) (F)  (DEG/KT/KT) (MB)
MICHIGAN CITY    0800   19   40/ 12/ 14   N/A

$$

INZ004-005-014>016-021>024-260900-
NORTH CENTRAL INDIANA

CITY           SKY/WX    TMP DP  RH WIND       PRES   REMARKS
GOSHEN         CLEAR     14   7  73 NE8       29.94S WCI   3
LOGANSPORT +   CLOUDY    23  16  74 N8        29.94R WCI  14
PERU/GRISSOM   CLOUDY    21  16  79 NE7       29.92R WCI  13
ROCHESTER +    CLEAR     21  12  68 N7        29.94R WCI  13
SOUTH BEND     CLEAR     15   8  73 NE3       29.97R
WARSAW +         N/A    N/A N/A N/A MISG        N/A

$$

INZ006>009-017-018-025>027-260900-
NORTHEAST INDIANA

CITY           SKY/WX    TMP DP  RH WIND       PRES   REMARKS
ANGOLA *+      CLEAR     12   7  79 N5        29.91R WCI   4
AUBURN +       MOCLDY    19   9  63 NE9G16    29.92S WCI   9
FORT WAYNE     CLOUDY    19  10  68 NE10      29.92R WCI   7
HUNTINGTON +   CLOUDY    19   7  59 NE9       29.91R WCI   8

$$

INZ028-029-035-036-043>045-051>053-260900-
WEST CENTRAL INDIANA

CITY           SKY/WX    TMP DP  RH WIND       PRES   REMARKS
GREENCASTLE +  CLOUDY    25  18  74 N13       29.89S WCI  13
LAFAYETTE      CLOUDY    24  18  77 N6        29.95R WCI  17
TERRE HAUTE    CLOUDY    27  22  81 N8        29.91S WCI  19

$$

INZ030>032-037>040-046>048-054>057-064-065-260900-
CENTRAL INDIANA

CITY           SKY/WX    TMP DP  RH WIND       PRES   REMARKS
CP ATTERBURY + CLOUDY    23  19  86 N12G22    29.86R WCI  12
INDIANAPOLIS   CLOUDY    19  16  88 NE17G24   29.87S WCI   4
-EAGLE CREEK   CLOUDY    21  16  81 NE14G22   29.88R WCI   8
KOKOMO *+      CLOUDY    21  10  63 NE14G20   29.92R WCI   8
MARION +       CLOUDY    20  13  75 NE12      29.91R WCI   8
MT COMFORT *+  MOCLDY    21  12  68 N17       29.87S WCI   7
SHELBYVILLE    CLOUDY    22  16  78 N13       29.84R WCI  10
ZIONSVILLE +   CLOUDY    22  16  75 NE14      29.90R WCI  10

$$

INZ033-034-041-042-049-050-058-059-260900-
EAST CENTRAL INDIANA

CITY           SKY/WX    TMP DP  RH WIND       PRES   REMARKS
MUNCIE         CLOUDY    19  14  81 NE15      29.87R WCI   5

$$

INZ060-061-067>069-081>083-085>088-260900-
SOUTHWEST INDIANA

CITY           SKY/WX    TMP DP  RH WIND       PRES   REMARKS
EVANSVILLE     CLOUDY    31  24  75 N14G25    29.91R WCI  21
HUNTINGBURG *+ CLOUDY    28  23  80 N15G24    29.88R WCI  17
WASHINGTON +   CLOUDY    28  22  78 N16G22    29.89R WCI  15

$$

INZ062-063-066-070>080-084-089>092-260900-
SOUTH CENTRAL AND SOUTHEAST INDIANA

CITY           SKY/WX    TMP DP  RH WIND       PRES   REMARKS
BLOOMINGTON    CLOUDY    24  20  84 N15       29.86R WCI  11
SEYMOUR +      CLOUDY    27  21  80 N16       29.85  WCI  14

$$




USA.gov is the U.S. government's official web portal to all federal, state and local government web resources and services.